[Date Prev][Date Next][Thread Prev][Thread Next] - [Date Index][Thread Index][Author Index]

2 Line ISS Keps 2-7



ISS
1 25544U 98067A   03038.47846065  .00027518  00000-0  33319-3 0  6626
2 25544  51.6375 311.6999 0005751 121.8570 226.1288 15.60436164240763


----
Via the sarex mailing list at AMSAT.ORG courtesy of AMSAT-NA.
To unsubscribe, send "unsubscribe sarex" to Majordomo@amsat.org



AMSAT Top AMSAT Home